Regional Weather Roundup
Issued by NWS

Home | Current Version | Previous Version | Graphics & Text | Print | Product List | Glossary On
Versions: 1 2 3 4 5 6 7 8 9 10 11 12 13 14 15 16 17 18 19 20 21 22 23 24 25 26 27 28 29 30 31 32 33 34 35 36 37 38 39 40 41 42 43 44 45 46 47 48 49 50
000
ASUS44 KMEG 180900
RWRTN
TENNESSEE HOURLY STATE WEATHER ROUNDUP
NATIONAL WEATHER SERVICE MEMPHIS TN
400 AM CDT SAT APR 18 2015

TNZ002-004-019-021-049-052-054-088>092-181000-
WEST TENNESSEE

CITY           SKY/WX    TMP DP  RH WIND       PRES   REMARKS
MEMPHIS INTL   PTCLDY    62  59  90 CALM      29.99S
NWS MEMPHIS      N/A     58 N/A N/A MISG        N/A
JACKSON        CLOUDY    57  56  96 CALM      30.00R
DYERSBURG      CLOUDY    57  46  67 CALM      30.02R
UNION CITY     CLOUDY    55  32  41 CALM      29.99S VSB 1/4
PARIS          CLOUDY    52  52 100 CALM      30.00R VSB 1/4
LEXINGTON      CLOUDY    55  55 100 CALM      30.00R VSB 1/4
SAVANNAH       CLOUDY    57  32  38 CALM      30.00R VSB 0
$$

TNZ008-025-027-028-033-062-065-066-181000-
NORTH MIDDLE TENNESSEE

CITY           SKY/WX    TMP DP  RH WIND       PRES   REMARKS
NASHVILLE      PTCLDY    57  56  96 CALM      30.00F FOG
CLARKSVILLE    FOG       54  54 100 NE3       29.99F VSB 1/4
COOKEVILLE     MOCLDY    54  54 100 CALM      30.01S
CROSSVILLE     FOG       54  52  93 S3        30.04S VSB 1/4
$$

TNZ061-075-076-078-094-096-097-181000-
SOUTH MIDDLE TENNESSEE

CITY           SKY/WX    TMP DP  RH WIND       PRES   REMARKS
FAYETTEVILLE     N/A     57  55  94 NE3       29.99S
TULLAHOMA      CLEAR     55  55 100 CALM      30.02R
WINCHESTER     CLOUDY    55  55 100 CALM      30.01S
MCMINNVILLE    MOCLDY    55  55 100 CALM      30.01F
COLUMBIA       CLOUDY    57  32  38 CALM      29.99S VSB 0
SHELBYVILLE    CLOUDY    57  57 100 CALM      30.01S VSB 1/4
$$

TNZ017-018-042-046-047-181000-
NORTHEAST TENNESSEE

CITY           SKY/WX    TMP DP  RH WIND       PRES   REMARKS
TRI CITIES     FOG       54  54 100 CALM      30.04R VSB 3/4
ELIZABETHTON   SUNNY     52  52 100 CALM      30.05R
$$

TNZ012-013-036-069-073-074-181000-
CENTRAL EAST TENNESSEE

CITY           SKY/WX    TMP DP  RH WIND       PRES   REMARKS
KNOXVILLE      FOG       59  59 100 CALM      30.01S VSB 1
OAK RIDGE      FOG       58  57  97 CALM      30.02F VSB 1/4
GATLINBURG     PTSUNNY   57  57 100 CALM      30.02S
$$

TNZ083-085-099-181000-
SOUTHEAST TENNESSEE

CITY           SKY/WX    TMP DP  RH WIND       PRES   REMARKS
CHATTANOOGA    CLOUDY    60  59  96 CALM      30.00F FOG
$$

SKY/WX REPORTED AS FAIR MEANS FEW OR NO CLOUDS BELOW
12 THOUSAND FEET.




USA.gov is the U.S. government's official web portal to all federal, state and local government web resources and services.